Location: Newark
(27.9675°N, 86.8869°E)
Time: 04:04:02
(UTC+00:00)

Altair - Pass Details

Date: 23 October 2019
Orbit: 1502 x 1682 km, 47.2° (Epoch: 12 November)

Event Time Altitude Azimuth Distance (km) Brightness Sun altitude
Rises 07:20:05 0° 296° (WNW) 4,757 10.1 45.8°
Reaches altitude 10° 07:24:03 10° 311° (NW) 3,804 9.6 45.4°
Maximum altitude 07:31:31 24° 1° (N) 2,905 8.8 44.5°
Drops below altitude 10° 07:39:10 10° 52° (NE) 3,907 9.3 43.5°
Sets 07:43:19 0° 66° (ENE) 4,913 9.8 43.0°
